FENGYUN 1C DEB, 46986

Orbit data source: Space-Track

FENGYUN 1C DEB, 46986 is space debris in SSO originally from a launch on Mon, 10 May 1999 UTC launched from the Taiyaun Space Center, China (TSC). Fengyun 1C debris stems from the Chinese weather satellite Fengyun-1C, which was intentionally destroyed by a Chinese anti-satellite missile in 2007. This event dramatically increased the amount of space debris, with thousands of trackable fragments posing hazards to satellites and human spaceflight. The Fengyun 1C debris cloud has become a focal point in discussions about space sustainability and the need for international regulations to prevent the creation of new debris.

Loading next visibility...
Identifier
46986, 1999-025EZL
Orbit
SSO
Country
Flag of CNCN / PRC
Related business
Manufacturer
Unknown
Mission
Spacecraft
Bus & Motor
Unknown
Mass
Unknown
Launch date (UTC)
Icon of a cake. It is the launch day of the satellite!1999-05-10 (27 years ago)
Launch vehicle
Unknown
Launch site
Taiyaun Space Center, China (TSC)
Object type
Payload
Rocket body
Debris
Shape & HBR
Unknown shape, 0.1 m
Radar Cross Section
Small (<0.1 m²)

Expand to show TLE details & history
Last TLE update: 1 day ago

TLE from 1 day ago
0 FENGYUN 1C DEB
1 46986U 99025EZL 26129.32851806  .00001121  00000-0  29486-3 0  9998
2 46986  98.2191 154.1166 0105548 121.3505 239.8070 14.47703767655358
Epoch: 2026-05-09T07:53Z
TLE epoch observation values (Epoch: 2026-05-09T07:53:03.960Z)
Latitude
0.00005°
Longitude
168.70257°
Altitude
774.47 km
Speed
7.447 km/s
True Right ascension
10h 16m 27s
True Declination
0° 00' 00"
Sunlit
Object was in daylight at epoch
Visualization orbit readout
Latitude
Unknown
Longitude
Unknown
Altitude
Unknown
Speed
Unknown
Apparent Right ascension
Unknown
Apparent Declination
Unknown
Sunlit
N/A
Visualization observer readout
Local Sidereal Time
21:26:38
Azimuth
Unknown
Elevation
Unknown
Doppler factor
Unknown
Orbital elements
Apogee altitude
805.284 km
Perigee altitude
655.229 km
Semi-major axis
7,108.393 km
Eccentricity
0.01055
Inclination
98.2191°
RAAN
154.1166°
Arg. of periapsis
121.3505°
True anomaly
238.76854°
Mean anomaly
239.807°
Eccentric anomaly
239.28708°
Mean motion
3.62148 °/min
Orbital period
99.41 mins
BSTAR
0.00029486
Loading maneuver chart data...
Computing Atmospheric mass density...

Documentation

Showing up to 5 results
|